Overview Statistics Trail Chart Weather Telemetry Raw packets
 

This is the latest recevied weather packets stored in our database for station/object PA0HHN. If no packets are shown the sender has not sent any weather packets the latest 10 day(s).

<< 2 3 4 5 6 7 8 >>
Time Temp. Humidity Pressure Rain* Wind** Luminosity Snow
1788532202 17.78° C 99% 1002.3 hPa - - - -
1788531302 17.22° C 99% 1002.1 hPa - - - -
1788530402 17.22° C 99% 1001.7 hPa - - - -
1788529502 17.22° C 99% 1001.6 hPa - - - -
1788528602 17.22° C 99% 1001.5 hPa - - - -
1788527701 17.22° C 99% 1001.8 hPa - - - -
1788526800 17.22° C 99% 1001.4 hPa - - - -
1788525900 17.78° C 99% 1001.1 hPa - - - -
1788525000 17.22° C 99% 1001.4 hPa - - - -
1788524101 17.78° C 99% 1001.3 hPa - - - -
1788523201 17.78° C 97% 1001 hPa - - - -
1788522301 17.78° C 96% 1001.1 hPa - - - -
1788521402 17.78° C 95% 1001.4 hPa - - - -
1788520502 18.89° C 96% 1001.3 hPa - - - -
1788519602 18.89° C 97% 1001.4 hPa - - - -
1788518702 20° C 99% 1000.9 hPa - - - -
1788517802 18.89° C 99% 1001.1 hPa - - - -
1788516902 20° C 98% 1000.5 hPa - - - -
1788516001 20° C 95% 1000.5 hPa - - - -
1788515102 20° C 93% 1000.5 hPa - - - -
1788514202 21.11° C 91% 1000.3 hPa - - - -
1788513302 20° C 92% 1000.4 hPa - - - -
1788512402 20° C 93% 1000.7 hPa - - - -
1788511502 20° C 95% 1000.5 hPa - - - -
1788510600 18.89° C 96% 1000.7 hPa - - - -

* Rain since midnight (hover to see other rain measurements)
** Current wind speed in m/s (hover to see current wind gust speed)